Location: Fernhill
(41.0167°S, 175.6333°E)
Time: 09:04:13
(UTC+00:00)

Meteor 1-19 Rocket - Pass Details

Date: 08 November 2025
Orbit: 807 x 925 km, 81.2° (Epoch: 12 December)

Event Time Altitude Azimuth Distance (km) Brightness Sun altitude
Rises 10:56:50 0° 189° (S) 3,609 8.6 -30.4°
Reaches altitude 10° 10:59:21 10° 187° (S) 2,655 7.7 -30.5°
Enters shadow 11:04:52 69° 148° (SSE) 987 4.5 -30.8°
